QTR572 OTHH-VOBL

Flight info

Callsign QTR572
Flight time 3h 31m
Altitude 35000
Route KUPRO N300 NOLSU P307 TONVO/N0489F390 P307 PARAR N571 BEKUT Q9 RIKBU RIKBU7E
Aircraft A35K/H-SDE2E3GHIJ3J4J5LM1ORWXY/LB1D1

Departure

Time 2026-05-06 21:44
Airport Hamad International Airport (OTHH)

Arrival

Time 2026-05-07 01:15
Airport Kempegowda International Airport Bengaluru (VOBL)
Time Latitude Longitude Altitude Speed Heading
2026-05-06 21:43 25.04278 51.35178 24994 ft 456 kts 161°
2026-05-06 21:44 25.01297 51.36436 25467 ft 459 kts 161°
2026-05-06 21:44 24.98300 51.37698 25957 ft 462 kts 162°
2026-05-06 21:44 24.95282 51.38969 26414 ft 466 kts 162°
2026-05-06 21:44 24.92327 51.40489 26898 ft 474 kts 152°
2026-05-06 21:45 24.89555 51.42507 27342 ft 480 kts 148°
2026-05-06 21:45 24.86819 51.44656 27771 ft 484 kts 147°
2026-05-06 21:45 24.84071 51.46825 28229 ft 488 kts 147°
2026-05-06 21:45 24.81309 51.49011 28677 ft 492 kts 147°
2026-05-06 21:46 24.78656 51.51431 29104 ft 500 kts 139°
2026-05-06 21:46 24.76338 51.54327 29486 ft 510 kts 129°
2026-05-06 21:46 24.74485 51.57690 29855 ft 519 kts 118°
2026-05-06 21:46 24.73203 51.61380 30157 ft 528 kts 107°
2026-05-06 21:47 24.72528 51.65367 30464 ft 535 kts 96°
2026-05-06 21:47 24.72525 51.69477 30765 ft 541 kts 85°
2026-05-06 21:47 24.73218 51.73561 31045 ft 546 kts 73°
2026-05-06 21:47 24.74598 51.77453 31336 ft 548 kts 62°
2026-05-06 21:48 24.76609 51.81025 31618 ft 550 kts 52°
2026-05-06 21:48 24.78729 51.84525 32013 ft 550 kts 59°
2026-05-06 21:48 24.80371 51.88321 32452 ft 549 kts 67°
2026-05-06 21:48 24.81721 51.92248 32869 ft 548 kts 70°
2026-05-06 21:49 24.82933 51.96221 33266 ft 548 kts 72°
2026-05-06 21:49 24.84079 52.00223 33641 ft 548 kts 72°
2026-05-06 21:49 24.85200 52.04229 33979 ft 548 kts 72°
2026-05-06 21:49 24.86324 52.08237 34291 ft 548 kts 72°
2026-05-06 21:50 24.87458 52.12250 34609 ft 548 kts 72°
2026-05-06 21:50 24.88588 52.16205 34784 ft 549 kts 72°
2026-05-06 21:50 24.90897 52.24222 34802 ft 550 kts 72°
2026-05-06 21:51 24.93215 52.32256 34799 ft 550 kts 72°
2026-05-06 21:51 24.95530 52.40294 34811 ft 550 kts 72°
2026-05-06 21:52 24.97838 52.48332 34805 ft 550 kts 72°
2026-05-06 21:52 25.00140 52.56374 34808 ft 550 kts 72°
2026-05-06 21:53 25.02438 52.64418 34804 ft 550 kts 72°
2026-05-06 21:53 25.04516 52.72538 34792 ft 550 kts 81°
2026-05-06 21:54 25.04562 52.80890 34799 ft 544 kts 102°
2026-05-06 21:54 25.02956 52.89023 34803 ft 541 kts 106°
2026-05-06 21:55 25.01090 52.97047 34796 ft 540 kts 107°
2026-05-06 21:55 24.99223 53.05005 34804 ft 540 kts 106°
2026-05-06 21:56 24.97369 53.13038 34804 ft 540 kts 106°
2026-05-06 21:56 24.95516 53.21065 34798 ft 540 kts 106°
2026-05-06 21:57 24.93660 53.29097 34787 ft 540 kts 106°
2026-05-06 21:57 24.92120 53.35753 34799 ft 538 kts 106°
2026-05-06 21:58 24.90261 53.43731 34795 ft 537 kts 107°
2026-05-06 21:58 24.88149 53.51609 34801 ft 536 kts 109°
2026-05-06 21:59 24.85927 53.59449 34800 ft 536 kts 109°
2026-05-06 21:59 24.83734 53.67292 34795 ft 536 kts 109°
2026-05-06 22:00 24.81566 53.75151 34790 ft 536 kts 109°
2026-05-06 22:00 24.79408 53.82996 34795 ft 535 kts 108°
2026-05-06 22:01 24.77252 53.90820 34796 ft 534 kts 109°
2026-05-06 22:01 24.75826 53.98847 34796 ft 538 kts 93°
2026-05-06 22:02 24.75996 54.02957 34792 ft 539 kts 82°
2026-05-06 22:02 24.76780 54.06939 34793 ft 540 kts 74°
2026-05-06 22:02 24.78945 54.14878 34785 ft 542 kts 71°
2026-05-06 22:03 24.81277 54.22781 34788 ft 543 kts 71°
2026-05-06 22:03 24.83581 54.30699 34784 ft 543 kts 71°
2026-05-06 22:04 24.85843 54.38629 34786 ft 543 kts 72°
2026-05-06 22:04 24.88088 54.46570 34785 ft 543 kts 72°
2026-05-06 22:05 24.90326 54.54509 34785 ft 543 kts 72°
2026-05-06 22:05 24.92562 54.62452 34787 ft 543 kts 71°
2026-05-06 22:06 24.94340 54.70543 34782 ft 543 kts 77°
2026-05-06 22:06 24.95900 54.78682 34785 ft 543 kts 77°
2026-05-06 22:07 24.97427 54.86846 34789 ft 543 kts 77°
2026-05-06 22:07 24.98955 54.94999 34793 ft 543 kts 77°
2026-05-06 22:08 25.00484 55.03162 34794 ft 543 kts 78°
2026-05-06 22:08 25.02006 55.11315 34800 ft 543 kts 77°
2026-05-06 22:09 25.03529 55.19482 34800 ft 543 kts 78°
2026-05-06 22:09 25.05049 55.27585 34802 ft 543 kts 77°
2026-05-06 22:10 25.06578 55.35751 34781 ft 544 kts 77°
2026-05-06 22:10 25.08103 55.43918 34783 ft 544 kts 77°
2026-05-06 22:11 25.09623 55.52092 34786 ft 544 kts 77°
2026-05-06 22:11 25.11140 55.60267 34793 ft 544 kts 77°
2026-05-06 22:12 25.12646 55.68443 34801 ft 544 kts 77°
2026-05-06 22:12 25.14137 55.76623 34806 ft 544 kts 77°
2026-05-06 22:13 25.15732 55.84782 34807 ft 543 kts 76°
2026-05-06 22:13 25.17434 55.92905 34802 ft 543 kts 76°
2026-05-06 22:14 25.19118 56.01037 34806 ft 543 kts 76°
2026-05-06 22:14 25.20515 56.09233 34800 ft 544 kts 85°
2026-05-06 22:15 25.20507 56.13402 34786 ft 543 kts 96°
2026-05-06 22:15 25.19847 56.17484 34796 ft 539 kts 109°
2026-05-06 22:15 25.17428 56.25269 34772 ft 535 kts 114°
2026-05-06 22:16 25.14791 56.32888 34773 ft 536 kts 114°
2026-05-06 22:16 25.12239 56.40620 34775 ft 536 kts 114°
2026-05-06 22:17 25.09623 56.48322 34772 ft 536 kts 116°
2026-05-06 22:17 25.08283 56.52171 34903 ft 537 kts 116°
2026-05-06 22:17 25.06955 56.56014 35252 ft 534 kts 117°
2026-05-06 22:18 25.05564 56.59799 35595 ft 532 kts 118°
2026-05-06 22:18 25.04141 56.63555 35915 ft 530 kts 118°
2026-05-06 22:18 25.02721 56.67293 36237 ft 528 kts 113°
2026-05-06 22:18 25.01411 56.71073 36571 ft 528 kts 111°
2026-05-06 22:19 25.00175 56.74885 36866 ft 527 kts 111°
2026-05-06 22:19 24.98928 56.78684 37154 ft 527 kts 112°
2026-05-06 22:19 24.97639 56.82457 37454 ft 525 kts 112°
2026-05-06 22:19 24.96308 56.86206 37732 ft 524 kts 113°
2026-05-06 22:20 24.94947 56.89929 38008 ft 523 kts 114°
2026-05-06 22:20 24.93572 56.93630 38282 ft 522 kts 114°
2026-05-06 22:20 24.92185 56.97329 38523 ft 521 kts 114°
2026-05-06 22:20 24.90799 57.01016 38706 ft 521 kts 114°
2026-05-06 22:21 24.88022 57.08410 38754 ft 521 kts 114°
2026-05-06 22:21 24.85258 57.15780 38757 ft 520 kts 114°
2026-05-06 22:22 24.82512 57.23099 38757 ft 520 kts 114°
2026-05-06 22:22 24.79747 57.30457 38758 ft 520 kts 114°
2026-05-06 22:23 24.76974 57.37820 38758 ft 520 kts 114°
2026-05-06 22:23 24.74204 57.45170 38755 ft 520 kts 114°
2026-05-06 22:24 24.71432 57.52509 38755 ft 519 kts 114°
2026-05-06 22:24 24.68657 57.59841 38759 ft 519 kts 114°
2026-05-06 22:25 24.65883 57.67162 38757 ft 519 kts 114°
2026-05-06 22:25 24.63105 57.74481 38759 ft 519 kts 114°
2026-05-06 22:26 24.60323 57.81804 38758 ft 519 kts 114°
2026-05-06 22:26 24.57532 57.89121 38758 ft 519 kts 114°
2026-05-06 22:27 24.54758 57.96385 38758 ft 519 kts 114°
2026-05-06 22:27 24.51959 58.03701 38761 ft 520 kts 114°
2026-05-06 22:28 24.49156 58.11020 38761 ft 520 kts 114°
2026-05-06 22:28 24.46350 58.18331 38759 ft 520 kts 114°
2026-05-06 22:29 24.43541 58.25638 38761 ft 520 kts 114°
2026-05-06 22:29 24.40725 58.32953 38758 ft 520 kts 114°
2026-05-06 22:30 24.37914 58.40246 38763 ft 519 kts 114°
2026-05-06 22:30 24.35102 58.47525 38697 ft 519 kts 114°
2026-05-06 22:31 24.32296 58.54780 38762 ft 520 kts 114°
2026-05-06 22:31 24.29476 58.62065 38763 ft 519 kts 115°
2026-05-06 22:32 24.26648 58.69341 38760 ft 519 kts 115°
2026-05-06 22:32 24.23816 58.76618 38755 ft 519 kts 115°
2026-05-06 22:33 24.20990 58.83875 38760 ft 517 kts 115°
2026-05-06 22:33 24.18167 58.91112 38760 ft 517 kts 115°
2026-05-06 22:34 24.15339 58.98350 38757 ft 517 kts 115°
2026-05-06 22:34 24.12508 59.05581 38761 ft 517 kts 114°
2026-05-06 22:35 24.09670 59.12819 38755 ft 517 kts 114°
2026-05-06 22:35 24.06851 59.19998 38757 ft 517 kts 114°
2026-05-06 22:36 24.04010 59.27222 38757 ft 516 kts 114°
2026-05-06 22:36 24.01175 59.34420 38758 ft 515 kts 114°
2026-05-06 22:37 23.98448 59.41676 38752 ft 516 kts 113°
2026-05-06 22:37 23.95786 59.48967 38752 ft 517 kts 113°
2026-05-06 22:38 23.93104 59.56260 38755 ft 517 kts 113°
2026-05-06 22:38 23.90405 59.63535 38755 ft 517 kts 113°
2026-05-06 22:39 23.87696 59.70803 38754 ft 516 kts 113°
2026-05-06 22:39 23.84990 59.78055 38755 ft 515 kts 113°
2026-05-06 22:40 23.82285 59.85305 38755 ft 515 kts 113°
2026-05-06 22:40 23.79574 59.92553 38755 ft 515 kts 113°
2026-05-06 22:41 23.75499 60.03428 38755 ft 516 kts 113°
2026-05-06 22:42 23.72780 60.10673 38756 ft 516 kts 113°
2026-05-06 22:42 23.70058 60.17911 38760 ft 515 kts 113°
2026-05-06 22:43 23.67354 60.25088 38755 ft 515 kts 113°
2026-05-06 22:43 23.64628 60.32316 38754 ft 515 kts 113°
2026-05-06 22:44 23.61896 60.39545 38757 ft 515 kts 113°
2026-05-06 22:44 23.59164 60.46764 38760 ft 515 kts 113°
2026-05-06 22:45 23.56424 60.53988 38757 ft 516 kts 113°
2026-05-06 22:45 23.53676 60.61224 38752 ft 516 kts 113°
2026-05-06 22:46 23.50932 60.68439 38758 ft 515 kts 113°
2026-05-06 22:46 23.48652 60.74424 38760 ft 514 kts 113°
2026-05-06 22:47 23.45903 60.81625 38761 ft 516 kts 113°
2026-05-06 22:47 23.43146 60.88837 38760 ft 516 kts 113°
2026-05-06 22:48 23.40383 60.96054 38760 ft 516 kts 113°
2026-05-06 22:48 23.37620 61.03263 38760 ft 516 kts 113°
2026-05-06 22:49 23.34848 61.10482 38761 ft 517 kts 113°
2026-05-06 22:49 23.32079 61.17683 38763 ft 515 kts 113°
2026-05-06 22:50 23.29150 61.24785 38761 ft 514 kts 116°
2026-05-06 22:50 23.25969 61.31748 38766 ft 514 kts 117°
2026-05-06 22:51 23.22787 61.38713 38766 ft 515 kts 116°
2026-05-06 22:51 23.19641 61.45714 38768 ft 516 kts 116°
2026-05-06 22:52 23.16532 61.52678 38768 ft 516 kts 116°
2026-05-06 22:52 23.13404 61.59683 38767 ft 514 kts 116°
2026-05-06 22:53 23.10285 61.66655 38772 ft 513 kts 116°
2026-05-06 22:53 23.07160 61.73624 38770 ft 513 kts 116°
2026-05-06 22:54 23.04036 61.80593 38772 ft 513 kts 116°
2026-05-06 22:54 23.00903 61.87553 38771 ft 513 kts 116°
2026-05-06 22:55 22.97765 61.94513 38773 ft 513 kts 116°
2026-05-06 22:55 22.94648 62.01424 38774 ft 513 kts 116°
2026-05-06 22:56 22.91513 62.08364 38773 ft 512 kts 116°
2026-05-06 22:56 22.88380 62.15292 38771 ft 512 kts 116°
2026-05-06 22:57 22.85241 62.22224 38776 ft 512 kts 116°
2026-05-06 22:57 22.82098 62.29154 38776 ft 513 kts 116°
2026-05-06 22:58 22.78947 62.36091 38779 ft 513 kts 116°
2026-05-06 22:58 22.75793 62.43027 38779 ft 513 kts 116°
2026-05-06 22:59 22.72638 62.49953 38779 ft 513 kts 116°
2026-05-06 22:59 22.69476 62.56885 38782 ft 513 kts 116°
2026-05-06 23:00 22.66309 62.63817 38783 ft 514 kts 116°
2026-05-06 23:00 22.63138 62.70752 38782 ft 514 kts 116°
2026-05-06 23:01 22.59984 62.77636 38781 ft 514 kts 116°
2026-05-06 23:01 22.56809 62.84559 38781 ft 514 kts 116°
2026-05-06 23:02 22.53627 62.91486 38782 ft 514 kts 116°
2026-05-06 23:02 22.50449 62.98395 38782 ft 513 kts 116°
2026-05-06 23:03 22.47271 63.05297 38783 ft 513 kts 116°
2026-05-06 23:03 22.44089 63.12197 38788 ft 513 kts 116°
2026-05-06 23:04 22.40959 63.19128 38787 ft 514 kts 115°
2026-05-06 23:04 22.37866 63.26095 38785 ft 514 kts 115°
2026-05-06 23:05 22.34765 63.33057 38786 ft 514 kts 115°
2026-05-06 23:05 22.31655 63.40000 38787 ft 513 kts 116°
2026-05-06 23:06 22.28545 63.46924 38790 ft 513 kts 116°
2026-05-06 23:06 22.25428 63.53852 38791 ft 513 kts 116°
2026-05-06 23:07 22.22306 63.60782 38787 ft 513 kts 116°
2026-05-06 23:07 22.19179 63.67716 38789 ft 514 kts 116°
2026-05-06 23:08 22.16049 63.74648 38795 ft 514 kts 116°
2026-05-06 23:08 22.12914 63.81579 38785 ft 514 kts 116°
2026-05-06 23:09 22.09780 63.88501 38793 ft 513 kts 116°
2026-05-06 23:09 22.06647 63.95410 38791 ft 513 kts 116°
2026-05-06 23:10 22.03532 64.02270 38791 ft 513 kts 116°
2026-05-06 23:10 22.00394 64.09171 38793 ft 513 kts 116°
2026-05-06 23:11 21.97247 64.16081 38793 ft 514 kts 116°
2026-05-06 23:11 21.94090 64.23006 38796 ft 514 kts 116°
2026-05-06 23:12 21.90938 64.29910 38796 ft 514 kts 116°
2026-05-06 23:12 21.87785 64.36808 38798 ft 513 kts 116°
2026-05-06 23:13 21.84628 64.43702 38799 ft 513 kts 116°
2026-05-06 23:13 21.81468 64.50596 38800 ft 513 kts 116°
2026-05-06 23:14 21.78327 64.57438 38797 ft 513 kts 116°
2026-05-06 23:14 21.75162 64.64322 38799 ft 513 kts 116°
2026-05-06 23:15 21.71988 64.71218 38802 ft 513 kts 116°
2026-05-06 23:15 21.68814 64.78105 38802 ft 513 kts 116°
2026-05-06 23:16 21.65649 64.84964 38802 ft 512 kts 117°
2026-05-06 23:16 21.62477 64.91828 38801 ft 512 kts 117°
2026-05-06 23:17 21.59327 64.98634 38801 ft 512 kts 117°
2026-05-06 23:17 21.56150 65.05489 38804 ft 513 kts 117°
2026-05-06 23:18 21.52967 65.12352 38804 ft 513 kts 117°
2026-05-06 23:18 21.49779 65.19212 38804 ft 513 kts 117°
2026-05-06 23:19 21.46590 65.26068 38806 ft 512 kts 117°
2026-05-06 23:19 21.43407 65.32904 38806 ft 511 kts 117°
2026-05-06 23:20 21.40225 65.39726 38807 ft 512 kts 117°
2026-05-06 23:20 21.37034 65.46559 38808 ft 512 kts 117°
2026-05-06 23:21 21.33842 65.53385 38808 ft 512 kts 117°
2026-05-06 23:21 21.30648 65.60206 38808 ft 512 kts 117°
2026-05-06 23:22 21.27449 65.67028 38806 ft 513 kts 117°
2026-05-06 23:22 21.24244 65.73857 38808 ft 513 kts 117°
2026-05-06 23:23 21.21063 65.80628 38811 ft 511 kts 117°
2026-05-06 23:23 21.17862 65.87429 38807 ft 511 kts 117°
2026-05-06 23:24 21.14659 65.94224 38809 ft 511 kts 117°
2026-05-06 23:24 21.11449 66.01027 38810 ft 512 kts 117°
2026-05-06 23:25 21.08307 66.07878 38809 ft 512 kts 116°
2026-05-06 23:25 21.05216 66.14746 38812 ft 512 kts 116°
2026-05-06 23:26 21.02112 66.21609 38811 ft 512 kts 116°
2026-05-06 23:26 20.98998 66.28457 38811 ft 511 kts 116°
2026-05-06 23:27 20.95878 66.35294 38813 ft 512 kts 116°
2026-05-06 23:27 20.92752 66.42135 38812 ft 512 kts 116°
2026-05-06 23:28 20.89643 66.48932 38810 ft 512 kts 116°
2026-05-06 23:28 20.86515 66.55764 38810 ft 512 kts 116°
2026-05-06 23:29 20.83378 66.62605 38813 ft 512 kts 116°
2026-05-06 23:29 20.80241 66.69438 38812 ft 512 kts 116°
2026-05-06 23:30 20.77099 66.76275 38813 ft 511 kts 116°
2026-05-06 23:30 20.73962 66.83092 38812 ft 510 kts 116°
2026-05-06 23:31 20.70827 66.89894 38809 ft 510 kts 116°
2026-05-06 23:31 20.67687 66.96699 38810 ft 511 kts 117°
2026-05-06 23:32 20.64540 67.03510 38810 ft 512 kts 117°
2026-05-06 23:32 20.61410 67.10277 38810 ft 512 kts 117°
2026-05-06 23:33 20.58255 67.17089 38806 ft 512 kts 117°
2026-05-06 23:33 20.55100 67.23892 38806 ft 512 kts 117°
2026-05-06 23:34 20.51934 67.30708 38807 ft 513 kts 117°
2026-05-06 23:34 20.48763 67.37528 38807 ft 513 kts 117°
2026-05-06 23:35 20.45591 67.44342 38804 ft 513 kts 117°
2026-05-06 23:35 20.42951 67.50010 38805 ft 513 kts 117°
2026-05-06 23:36 20.39775 67.56816 38808 ft 513 kts 117°
2026-05-06 23:36 20.36069 67.64748 38808 ft 514 kts 117°
2026-05-06 23:37 20.33395 67.70463 38807 ft 514 kts 117°
2026-05-06 23:37 20.30204 67.77278 38805 ft 513 kts 117°
2026-05-06 23:38 20.27043 67.84022 38804 ft 511 kts 117°
2026-05-06 23:38 20.23863 67.90795 38804 ft 511 kts 117°
2026-05-06 23:39 20.20683 67.97559 38806 ft 511 kts 117°
2026-05-06 23:39 20.17500 68.04323 38806 ft 511 kts 117°
2026-05-06 23:40 20.14315 68.11084 38807 ft 511 kts 117°
2026-05-06 23:40 20.11126 68.17841 38807 ft 511 kts 117°
2026-05-06 23:41 20.07934 68.24599 38807 ft 512 kts 117°
2026-05-06 23:41 20.04737 68.31361 38807 ft 510 kts 117°
2026-05-06 23:42 20.01550 68.38092 38807 ft 509 kts 117°
2026-05-06 23:42 19.98358 68.44826 38807 ft 509 kts 117°
2026-05-06 23:43 19.95167 68.51547 38808 ft 509 kts 117°
2026-05-06 23:43 19.91970 68.58274 38809 ft 510 kts 117°
2026-05-06 23:44 19.88788 68.64963 38814 ft 511 kts 117°
2026-05-06 23:44 19.85580 68.71700 38809 ft 511 kts 117°
2026-05-06 23:45 19.82368 68.78434 38804 ft 511 kts 117°
2026-05-06 23:45 19.79166 68.85143 38811 ft 508 kts 117°
2026-05-06 23:46 19.75970 68.91828 38799 ft 508 kts 117°
2026-05-06 23:46 19.72771 68.98510 38800 ft 508 kts 117°
2026-05-06 23:47 19.69571 69.05188 38801 ft 508 kts 117°
2026-05-06 23:47 19.66365 69.11871 38797 ft 508 kts 117°
2026-05-06 23:48 19.63158 69.18549 38815 ft 508 kts 117°
2026-05-06 23:48 19.59946 69.25229 38807 ft 509 kts 117°
2026-05-06 23:49 19.56728 69.31914 38798 ft 509 kts 117°
2026-05-06 23:49 19.53533 69.38600 38798 ft 508 kts 116°
2026-05-06 23:50 19.50459 69.45337 38802 ft 508 kts 116°
2026-05-06 23:50 19.45887 69.55412 38799 ft 508 kts 116°
2026-05-06 23:51 19.42799 69.62153 38791 ft 509 kts 116°
2026-05-06 23:51 19.39699 69.68897 38804 ft 509 kts 116°
2026-05-06 23:52 19.36598 69.75631 38811 ft 509 kts 116°
2026-05-06 23:52 19.33493 69.82369 38802 ft 509 kts 116°
2026-05-06 23:53 19.30385 69.89106 38810 ft 508 kts 116°
2026-05-06 23:53 19.27288 69.95812 38806 ft 506 kts 116°
2026-05-06 23:54 19.24194 70.02503 38796 ft 506 kts 116°
2026-05-06 23:54 19.21098 70.09192 38803 ft 506 kts 116°
2026-05-06 23:55 19.18001 70.15873 38788 ft 506 kts 116°
2026-05-06 23:55 19.14919 70.22515 38795 ft 506 kts 116°
2026-05-06 23:56 19.11813 70.29202 38790 ft 506 kts 116°
2026-05-06 23:56 19.08704 70.35887 38801 ft 507 kts 116°
2026-05-06 23:57 19.05593 70.42568 38795 ft 507 kts 116°
2026-05-06 23:57 19.02487 70.49233 38797 ft 504 kts 116°
2026-05-06 23:58 18.99389 70.55872 38797 ft 504 kts 116°
2026-05-06 23:58 18.96282 70.62522 38800 ft 505 kts 116°
2026-05-06 23:59 18.93168 70.69180 38797 ft 505 kts 116°
2026-05-06 23:59 18.90052 70.75834 38798 ft 505 kts 116°
2026-05-07 00:00 18.86935 70.82484 38801 ft 505 kts 116°
2026-05-07 00:00 18.83810 70.89140 38795 ft 506 kts 116°
2026-05-07 00:01 18.80702 70.95755 38784 ft 507 kts 116°
2026-05-07 00:01 18.77569 71.02414 38791 ft 506 kts 116°
2026-05-07 00:02 18.74442 71.09056 38798 ft 505 kts 116°
2026-05-07 00:02 18.71314 71.15695 38798 ft 505 kts 116°
2026-05-07 00:03 18.68184 71.22326 38795 ft 505 kts 116°
2026-05-07 00:03 18.65051 71.28956 38804 ft 505 kts 116°
2026-05-07 00:04 18.61914 71.35588 38797 ft 505 kts 116°
2026-05-07 00:04 18.58777 71.42210 38804 ft 505 kts 116°
2026-05-07 00:05 18.55639 71.48832 38804 ft 505 kts 116°
2026-05-07 00:05 18.52502 71.55448 38799 ft 505 kts 116°
2026-05-07 00:06 18.49359 71.62064 38789 ft 505 kts 116°
2026-05-07 00:06 18.46214 71.68678 38800 ft 505 kts 116°
2026-05-07 00:07 18.43063 71.75297 38799 ft 505 kts 116°
2026-05-07 00:07 18.39913 71.81905 38798 ft 505 kts 116°
2026-05-07 00:08 18.36780 71.88470 38799 ft 505 kts 117°
2026-05-07 00:08 18.33623 71.95079 38797 ft 505 kts 117°
2026-05-07 00:09 18.30463 72.01687 38799 ft 506 kts 117°
2026-05-07 00:09 18.27299 72.08293 38801 ft 506 kts 117°
2026-05-07 00:10 18.24131 72.14903 38794 ft 505 kts 117°
2026-05-07 00:10 18.20966 72.21500 38796 ft 505 kts 117°
2026-05-07 00:11 18.17801 72.28094 38792 ft 505 kts 117°
2026-05-07 00:11 18.14624 72.34700 38790 ft 506 kts 117°
2026-05-07 00:12 18.11444 72.41306 38793 ft 506 kts 117°
2026-05-07 00:12 18.08289 72.47856 38787 ft 506 kts 117°
2026-05-07 00:13 18.05107 72.54453 38789 ft 506 kts 117°
2026-05-07 00:13 18.01920 72.61054 38799 ft 506 kts 117°
2026-05-07 00:14 17.98730 72.67652 38786 ft 506 kts 117°
2026-05-07 00:14 17.95542 72.74240 38788 ft 506 kts 117°
2026-05-07 00:15 17.92349 72.80829 38783 ft 506 kts 117°
2026-05-07 00:15 17.89151 72.87423 38795 ft 506 kts 117°
2026-05-07 00:16 17.85958 72.94004 38790 ft 506 kts 117°
2026-05-07 00:16 17.82762 73.00582 38793 ft 506 kts 117°
2026-05-07 00:17 17.79580 73.07125 38785 ft 506 kts 117°
2026-05-07 00:17 17.76380 73.13696 38799 ft 506 kts 117°
2026-05-07 00:18 17.73086 73.20219 38791 ft 506 kts 123°
2026-05-07 00:18 17.68683 73.25929 38798 ft 503 kts 133°
2026-05-07 00:19 17.63862 73.31235 38802 ft 502 kts 135°
2026-05-07 00:19 17.58970 73.36482 38798 ft 503 kts 135°
2026-05-07 00:20 17.54086 73.41734 38808 ft 503 kts 135°
2026-05-07 00:20 17.49216 73.46994 38807 ft 503 kts 135°
2026-05-07 00:21 17.44346 73.52259 38822 ft 503 kts 135°
2026-05-07 00:21 17.39504 73.57489 38808 ft 503 kts 135°
2026-05-07 00:22 17.34638 73.62740 38826 ft 502 kts 135°
2026-05-07 00:22 17.29778 73.67982 38835 ft 502 kts 135°
2026-05-07 00:23 17.24914 73.73222 38832 ft 502 kts 135°
2026-05-07 00:23 17.20044 73.78464 38829 ft 502 kts 135°
2026-05-07 00:24 17.15170 73.83707 38836 ft 502 kts 135°
2026-05-07 00:24 17.10302 73.88939 38840 ft 502 kts 135°
2026-05-07 00:25 17.06254 73.93288 38837 ft 502 kts 135°
2026-05-07 00:25 17.01381 73.98518 38851 ft 502 kts 135°
2026-05-07 00:26 16.96514 74.03738 38851 ft 502 kts 135°
2026-05-07 00:26 16.91641 74.08958 38853 ft 502 kts 135°
2026-05-07 00:27 16.86989 74.14390 38852 ft 502 kts 129°
2026-05-07 00:27 16.82618 74.20092 38852 ft 503 kts 129°
2026-05-07 00:28 16.78289 74.25832 38850 ft 503 kts 128°
2026-05-07 00:28 16.73961 74.31565 38851 ft 503 kts 128°
2026-05-07 00:29 16.69623 74.37294 38849 ft 503 kts 128°
2026-05-07 00:30 16.60965 74.48696 38852 ft 503 kts 129°
2026-05-07 00:30 16.57990 74.52608 38849 ft 503 kts 129°
2026-05-07 00:31 16.53632 74.58335 38851 ft 503 kts 129°
2026-05-07 00:31 16.49279 74.64053 38853 ft 503 kts 129°
2026-05-07 00:32 16.44903 74.69742 38846 ft 502 kts 129°
2026-05-07 00:32 16.40542 74.75417 38847 ft 501 kts 129°
2026-05-07 00:33 16.36194 74.81099 38845 ft 501 kts 128°
2026-05-07 00:33 16.31880 74.86741 38851 ft 501 kts 128°
2026-05-07 00:34 16.27540 74.92417 38851 ft 501 kts 128°
2026-05-07 00:34 16.23197 74.98094 38851 ft 501 kts 128°
2026-05-07 00:35 16.18853 75.03766 38853 ft 501 kts 128°
2026-05-07 00:35 16.14507 75.09438 38847 ft 500 kts 129°
2026-05-07 00:36 16.10178 75.15084 38851 ft 499 kts 129°
2026-05-07 00:36 16.05853 75.20719 38850 ft 499 kts 129°
2026-05-07 00:37 16.01525 75.26353 38848 ft 498 kts 129°
2026-05-07 00:37 15.97196 75.31984 38850 ft 498 kts 129°
2026-05-07 00:38 15.92864 75.37615 38842 ft 498 kts 129°
2026-05-07 00:38 15.88562 75.43204 38843 ft 498 kts 129°
2026-05-07 00:39 15.84237 75.48819 38851 ft 496 kts 129°
2026-05-07 00:39 15.79933 75.54401 38845 ft 494 kts 129°
2026-05-07 00:40 15.75633 75.59972 38845 ft 494 kts 129°
2026-05-07 00:40 15.71336 75.65538 38851 ft 494 kts 129°
2026-05-07 00:41 15.67034 75.71105 38850 ft 494 kts 129°
2026-05-07 00:41 15.63610 75.75533 38846 ft 494 kts 129°
2026-05-07 00:42 15.59338 75.81054 38856 ft 493 kts 129°
2026-05-07 00:42 15.55045 75.86598 38853 ft 493 kts 129°
2026-05-07 00:43 15.50764 75.92123 38851 ft 491 kts 129°
2026-05-07 00:43 15.46752 75.97295 38859 ft 490 kts 129°
2026-05-07 00:44 15.42477 76.02805 38858 ft 490 kts 129°
2026-05-07 00:44 15.38198 76.08314 38857 ft 490 kts 129°
2026-05-07 00:45 15.33919 76.13820 38857 ft 490 kts 129°
2026-05-07 00:45 15.29638 76.19326 38854 ft 491 kts 129°
2026-05-07 00:46 15.25353 76.24832 38858 ft 491 kts 129°
2026-05-07 00:46 15.21096 76.30296 38857 ft 491 kts 129°
2026-05-07 00:47 15.16670 76.35640 38853 ft 488 kts 138°
2026-05-07 00:47 15.11154 76.39652 38866 ft 484 kts 148°
2026-05-07 00:48 15.05450 76.43366 38875 ft 484 kts 148°
2026-05-07 00:48 14.99753 76.47087 38870 ft 484 kts 148°
2026-05-07 00:49 14.94063 76.50810 38879 ft 484 kts 148°
2026-05-07 00:49 14.88367 76.54535 38880 ft 485 kts 148°
2026-05-07 00:50 14.82670 76.58260 38881 ft 485 kts 148°
2026-05-07 00:50 14.76970 76.61984 38892 ft 485 kts 148°
2026-05-07 00:51 14.71303 76.65685 38890 ft 485 kts 148°
2026-05-07 00:51 14.68463 76.67540 38647 ft 479 kts 148°
2026-05-07 00:51 14.65642 76.69381 37721 ft 482 kts 148°
2026-05-07 00:52 14.62790 76.71241 36624 ft 489 kts 148°
2026-05-07 00:52 14.59890 76.73134 35564 ft 497 kts 148°
2026-05-07 00:52 14.56946 76.75055 34523 ft 504 kts 148°
2026-05-07 00:52 14.53961 76.77002 33465 ft 510 kts 147°
2026-05-07 00:53 14.50951 76.78963 32436 ft 514 kts 147°
2026-05-07 00:53 14.47918 76.80937 31411 ft 517 kts 148°
2026-05-07 00:53 14.44862 76.82925 30389 ft 521 kts 148°
2026-05-07 00:53 14.41790 76.84921 29282 ft 523 kts 148°
2026-05-07 00:54 14.38695 76.86929 28263 ft 524 kts 148°
2026-05-07 00:54 14.35622 76.88923 27356 ft 521 kts 148°
2026-05-07 00:54 14.32565 76.90906 26649 ft 515 kts 148°
2026-05-07 00:54 14.29544 76.92867 25851 ft 512 kts 147°
2026-05-07 00:55 14.26547 76.94813 25192 ft 506 kts 147°
2026-05-07 00:55 14.23582 76.96738 24536 ft 500 kts 147°
2026-05-07 00:55 14.20655 76.98641 23885 ft 495 kts 147°
2026-05-07 00:55 14.17760 77.00528 23168 ft 490 kts 147°
2026-05-07 00:56 14.14889 77.02397 22472 ft 483 kts 147°
2026-05-07 00:56 14.12069 77.04232 21843 ft 475 kts 147°
2026-05-07 00:56 14.09295 77.06038 21202 ft 468 kts 147°
2026-05-07 00:56 14.06560 77.07819 20581 ft 461 kts 147°
2026-05-07 00:57 14.03901 77.09550 19962 ft 455 kts 147°
2026-05-07 00:57 14.01238 77.11284 19333 ft 449 kts 147°
2026-05-07 00:57 13.98615 77.12992 18723 ft 445 kts 147°
2026-05-07 00:57 13.96011 77.14685 18069 ft 440 kts 146°
2026-05-07 00:58 13.93436 77.16358 17399 ft 434 kts 146°
2026-05-07 00:58 13.90901 77.18005 16794 ft 428 kts 146°
2026-05-07 00:58 13.88400 77.19631 16159 ft 422 kts 146°
2026-05-07 00:58 13.85934 77.21234 15550 ft 416 kts 147°
2026-05-07 00:59 13.81089 77.24378 14330 ft 407 kts 146°
2026-05-07 00:59 13.78709 77.25925 13792 ft 401 kts 146°
2026-05-07 00:59 13.76356 77.27456 13534 ft 401 kts 146°
2026-05-07 01:00 13.73990 77.28990 13269 ft 402 kts 146°
2026-05-07 01:00 13.71631 77.30517 12998 ft 400 kts 146°
2026-05-07 01:00 13.69277 77.32041 12738 ft 399 kts 146°
2026-05-07 01:00 13.66934 77.33558 12492 ft 395 kts 146°
2026-05-07 01:01 13.64687 77.35012 12288 ft 365 kts 146°
2026-05-07 01:01 13.62631 77.36344 12060 ft 334 kts 145°
2026-05-07 01:01 13.60743 77.37567 11821 ft 308 kts 145°
2026-05-07 01:01 13.58991 77.38683 11607 ft 286 kts 147°
2026-05-07 01:02 13.57243 77.39515 11358 ft 269 kts 155°
2026-05-07 01:02 13.55552 77.40187 11190 ft 257 kts 156°
2026-05-07 01:02 13.53873 77.40843 11042 ft 258 kts 156°
2026-05-07 01:02 13.52198 77.41499 10869 ft 258 kts 155°
2026-05-07 01:03 13.50542 77.42150 10690 ft 257 kts 155°
2026-05-07 01:03 13.48853 77.42815 10529 ft 257 kts 155°
2026-05-07 01:03 13.47209 77.43463 10348 ft 256 kts 155°
2026-05-07 01:03 13.45546 77.44118 10186 ft 255 kts 155°
2026-05-07 01:04 13.43889 77.44771 10012 ft 255 kts 155°
2026-05-07 01:04 13.42222 77.45392 9840 ft 256 kts 160°
2026-05-07 01:04 13.40454 77.45658 9647 ft 257 kts 173°
2026-05-07 01:04 13.38668 77.45730 9474 ft 256 kts 175°
2026-05-07 01:05 13.36888 77.45776 9303 ft 254 kts 175°
2026-05-07 01:05 13.35156 77.45821 9177 ft 243 kts 175°
2026-05-07 01:05 13.33497 77.45722 9010 ft 239 kts 193°
2026-05-07 01:05 13.32058 77.44901 8902 ft 239 kts 223°
2026-05-07 01:06 13.31129 77.43496 8770 ft 238 kts 244°
2026-05-07 01:06 13.30480 77.41934 8580 ft 238 kts 248°
2026-05-07 01:06 13.29864 77.40364 8301 ft 237 kts 244°
2026-05-07 01:06 13.28829 77.39096 8033 ft 232 kts 210°
2026-05-07 01:07 13.27353 77.38527 7787 ft 226 kts 187°
2026-05-07 01:07 13.25798 77.38276 7525 ft 227 kts 184°
2026-05-07 01:07 13.24234 77.38230 7245 ft 223 kts 163°
2026-05-07 01:07 13.22925 77.38956 6990 ft 212 kts 129°
2026-05-07 01:08 13.22101 77.40189 6755 ft 210 kts 115°
2026-05-07 01:08 13.21521 77.41566 6504 ft 210 kts 107°
2026-05-07 01:08 13.21122 77.43004 6245 ft 209 kts 98°
2026-05-07 01:08 13.20994 77.44482 6020 ft 208 kts 91°
2026-05-07 01:09 13.20959 77.45970 5987 ft 209 kts 90°
2026-05-07 01:09 13.20944 77.47464 5987 ft 209 kts 90°
2026-05-07 01:09 13.20926 77.48930 6003 ft 201 kts 90°
2026-05-07 01:09 13.20915 77.50349 6001 ft 199 kts 90°
2026-05-07 01:10 13.20900 77.51831 6006 ft 215 kts 90°
2026-05-07 01:10 13.20886 77.53308 5943 ft 200 kts 89°
2026-05-07 01:10 13.20968 77.54704 5730 ft 194 kts 83°
2026-05-07 01:10 13.21026 77.56084 5321 ft 196 kts 93°
2026-05-07 01:11 13.20941 77.57490 4922 ft 196 kts 95°
2026-05-07 01:11 13.20852 77.58807 4682 ft 181 kts 96°
2026-05-07 01:11 13.20816 77.60053 4506 ft 169 kts 87°
2026-05-07 01:11 13.20874 77.61241 4271 ft 164 kts 90°
2026-05-07 01:12 13.20865 77.62397 3946 ft 161 kts 94°
2026-05-07 01:12 13.20838 77.63549 3763 ft 157 kts 89°
2026-05-07 01:12 13.20862 77.64628 3616 ft 144 kts 90°
2026-05-07 01:12 13.20806 77.65648 3531 ft 144 kts 97°
2026-05-07 01:13 13.20756 77.66686 3409 ft 146 kts 95°
2026-05-07 01:13 13.20751 77.67730 3217 ft 145 kts 93°
2026-05-07 01:13 13.20725 77.68758 3035 ft 143 kts 94°
2026-05-07 01:13 13.20709 77.69715 3022 ft 121 kts 91°
2026-05-07 01:14 13.20702 77.70469 3017 ft 92 kts 90°
2026-05-07 01:14 13.20700 77.70883 3017 ft 83 kts 90°
2026-05-07 01:14 13.20697 77.71419 3017 ft 67 kts 90°
2026-05-07 01:14 13.20694 77.71862 3017 ft 55 kts 90°
2026-05-07 01:15 13.20689 77.72149 3018 ft 21 kts 96°
2026-05-07 01:15 13.20644 77.72201 3018 ft 8 kts 171°
2026-05-07 01:15 13.20579 77.72203 3018 ft 11 kts 178°
2026-05-07 01:15 13.20520 77.72164 3018 ft 11 kts 253°
2026-05-07 01:16 13.20518 77.72073 3018 ft 14 kts 270°
2026-05-07 01:16 13.20520 77.71963 3018 ft 17 kts 270°
2026-05-07 01:16 13.20520 77.71834 3018 ft 19 kts 270°
2026-05-07 01:16 13.20522 77.71687 3018 ft 22 kts 270°
2026-05-07 01:17 13.20523 77.71524 3017 ft 24 kts 271°
2026-05-07 01:17 13.20525 77.71345 3017 ft 26 kts 270°
2026-05-07 01:17 13.20451 77.71273 3017 ft 15 kts 178°
2026-05-07 01:17 13.20343 77.71275 3017 ft 16 kts 180°
2026-05-07 01:18 13.20258 77.71229 3017 ft 14 kts 260°
2026-05-07 01:18 13.20261 77.71116 3017 ft 17 kts 270°
2026-05-07 01:18 13.20262 77.70992 3017 ft 17 kts 270°
2026-05-07 01:18 13.20249 77.70924 3017 ft 5 kts 208°
2026-05-07 01:19 13.20211 77.70919 3017 ft 7 kts 182°
2026-05-07 01:19 13.20174 77.70918 3017 ft 2 kts 181°